Time,TemperatureF,DewpointF,PressureIn,WindDirection,WindDirectionDegrees,WindSpeedMPH,WindSpeedGustMPH,Humidity,HourlyPrecipIn,Conditions,Clouds,dailyrainin,SoftwareType,DateUTC
2013-01-12 00:00:00,68.3,65.9,29.81,SE,125,4.0,9.0,92,0.00,,,0.00,WeatherCatV1.10B1784,2013-01-12 06:00:00,
2013-01-12 00:05:00,68.4,66.0,29.81,ESE,121,1.0,5.0,92,0.00,,,0.00,WeatherCatV1.10B1784,2013-01-12 06:05:00,
2013-01-12 00:10:00,68.3,65.9,29.81,ESE,118,5.0,6.0,92,0.00,,,0.00,WeatherCatV1.10B1784,2013-01-12 06:10:00,
2013-01-12 00:15:00,68.4,66.0,29.80,SE,130,6.0,12.0,92,0.00,,,0.00,WeatherCatV1.10B1784,2013-01-12 06:15:00,
2013-01-12 00:20:00,68.4,66.0,29.80,SSE,156,0.0,8.0,92,0.00,,,0.00,WeatherCatV1.10B1784,2013-01-12 06:20:00,
2013-01-12 00:25:00,68.5,66.1,29.81,SE,138,0.0,3.0,92,0.00,,,0.00,WeatherCatV1.10B1784,2013-01-12 06:25:00,
2013-01-12 00:30:00,68.5,66.1,29.81,SSE,158,0.0,4.0,92,0.00,,,0.00,WeatherCatV1.10B1784,2013-01-12 06:30:00,
2013-01-12 00:35:00,68.5,66.1,29.81,South,169,1.0,12.0,92,0.00,,,0.00,WeatherCatV1.10B1784,2013-01-12 06:35:00,
2013-01-12 00:40:00,68.6,66.2,29.81,SSE,151,3.0,5.0,92,0.00,,,0.00,WeatherCatV1.10B1784,2013-01-12 06:40:00,
2013-01-12 00:45:00,68.7,66.3,29.81,South,176,3.0,5.0,92,0.00,,,0.00,WeatherCatV1.10B1784,2013-01-12 06:45:00,
2013-01-12 00:50:00,68.8,66.4,29.81,ESE,121,4.0,9.0,92,0.00,,,0.00,WeatherCatV1.10B1784,2013-01-12 06:50:00,
2013-01-12 00:55:00,68.8,66.1,29.80,SE,134,4.0,6.0,91,0.00,,,0.00,WeatherCatV1.10B1784,2013-01-12 06:55:00,
2013-01-12 01:00:00,68.8,66.1,29.80,SE,135,2.0,7.0,91,0.00,,,0.00,WeatherCatV1.10B1784,2013-01-12 07:00:00,
2013-01-12 01:05:00,68.9,66.2,29.80,SE,142,3.0,5.0,91,0.00,,,0.00,WeatherCatV1.10B1784,2013-01-12 07:05:00,
2013-01-12 01:10:00,69.0,66.3,29.80,SE,139,0.0,6.0,91,0.00,,,0.00,WeatherCatV1.10B1784,2013-01-12 07:10:00,
2013-01-12 01:15:00,69.1,66.4,29.81,SSE,148,0.0,5.0,91,0.00,,,0.00,WeatherCatV1.10B1784,2013-01-12 07:15:00,
2013-01-12 01:20:00,69.2,66.5,29.81,South,170,6.0,8.0,91,0.00,,,0.00,WeatherCatV1.10B1784,2013-01-12 07:20:00,
2013-01-12 01:25:00,69.3,66.6,29.81,South,171,3.0,5.0,91,0.00,,,0.00,WeatherCatV1.10B1784,2013-01-12 07:25:00,
2013-01-12 01:30:00,69.2,66.5,29.81,SSE,147,0.0,0.0,91,0.00,,,0.00,WeatherCatV1.10B1784,2013-01-12 07:30:00,
2013-01-12 01:35:00,69.3,66.6,29.81,SE,141,2.0,8.0,91,0.00,,,0.00,WeatherCatV1.10B1784,2013-01-12 07:35:00,
2013-01-12 01:40:00,69.3,66.6,29.81,SE,138,3.0,5.0,91,0.00,,,0.00,WeatherCatV1.10B1784,2013-01-12 07:40:00,
2013-01-12 01:45:00,69.4,66.7,29.81,East,99,0.0,7.0,91,0.00,,,0.00,WeatherCatV1.10B1784,2013-01-12 07:45:00,
2013-01-12 01:50:00,69.4,66.7,29.80,SSE,155,4.0,6.0,91,0.00,,,0.00,WeatherCatV1.10B1784,2013-01-12 07:50:00,
2013-01-12 01:55:00,69.5,66.8,29.80,SE,130,0.0,4.0,91,0.00,,,0.00,WeatherCatV1.10B1784,2013-01-12 07:55:00,
2013-01-12 02:00:00,69.5,66.8,29.80,ESE,117,0.0,7.0,91,0.00,,,0.00,WeatherCatV1.10B1784,2013-01-12 08:00:00,
2013-01-12 02:05:00,69.5,66.8,29.80,SE,142,4.0,6.0,91,0.00,,,0.00,WeatherCatV1.10B1784,2013-01-12 08:05:00,
2013-01-12 02:10:00,69.6,66.8,29.80,SE,134,0.0,10.0,91,0.00,,,0.00,WeatherCatV1.10B1784,2013-01-12 08:10:00,
2013-01-12 02:15:00,69.7,66.9,29.80,SSE,152,4.0,4.0,91,0.00,,,0.00,WeatherCatV1.10B1784,2013-01-12 08:15:00,
2013-01-12 02:20:00,69.7,66.9,29.80,SE,133,0.0,8.0,91,0.00,,,0.00,WeatherCatV1.10B1784,2013-01-12 08:20:00,
2013-01-12 02:25:00,69.8,67.0,29.80,SE,126,0.0,6.0,91,0.00,,,0.00,WeatherCatV1.10B1784,2013-01-12 08:25:00,
2013-01-12 02:30:00,69.9,67.1,29.80,SE,140,0.0,11.0,91,0.00,,,0.00,WeatherCatV1.10B1784,2013-01-12 08:30:00,
2013-01-12 02:35:00,69.9,67.1,29.80,SSW,194,3.0,4.0,91,0.00,,,0.00,WeatherCatV1.10B1784,2013-01-12 08:35:00,
2013-01-12 02:40:00,69.9,67.1,29.80,SSE,149,3.0,5.0,91,0.00,,,0.00,WeatherCatV1.10B1784,2013-01-12 08:40:00,
2013-01-12 02:45:00,69.9,67.1,29.80,SSE,149,4.0,6.0,91,0.00,,,0.00,WeatherCatV1.10B1784,2013-01-12 08:45:00,
2013-01-12 02:50:00,69.9,67.1,29.80,SE,130,0.0,6.0,91,0.00,,,0.00,WeatherCatV1.10B1784,2013-01-12 08:50:00,
2013-01-12 02:55:00,69.9,67.1,29.79,SE,142,0.0,3.0,91,0.00,,,0.00,WeatherCatV1.10B1784,2013-01-12 08:55:00,
2013-01-12 03:00:00,69.9,67.1,29.78,ESE,109,10.0,10.0,91,0.00,,,0.00,WeatherCatV1.10B1784,2013-01-12 09:00:00,
2013-01-12 03:05:00,69.9,67.1,29.78,ESE,114,5.0,7.0,91,0.00,,,0.00,WeatherCatV1.10B1784,2013-01-12 09:05:00,
2013-01-12 03:10:00,70.0,67.2,29.78,SSE,161,0.0,3.0,91,0.00,,,0.00,WeatherCatV1.10B1784,2013-01-12 09:10:00,
2013-01-12 03:15:00,70.0,67.2,29.78,ESE,118,0.0,5.0,91,0.00,,,0.00,WeatherCatV1.10B1784,2013-01-12 09:15:00,
2013-01-12 03:20:00,70.1,67.3,29.78,SE,137,2.0,3.0,91,0.00,,,0.00,WeatherCatV1.10B1784,2013-01-12 09:20:00,
2013-01-12 03:25:00,70.2,67.4,29.78,SSE,149,0.0,6.0,91,0.00,,,0.00,WeatherCatV1.10B1784,2013-01-12 09:25:00,
2013-01-12 03:30:00,70.2,67.4,29.78,SSE,156,2.0,8.0,91,0.00,,,0.00,WeatherCatV1.10B1784,2013-01-12 09:30:00,
2013-01-12 03:35:00,70.3,67.2,29.77,SSE,153,2.0,5.0,90,0.00,,,0.00,WeatherCatV1.10B1784,2013-01-12 09:35:00,
2013-01-12 03:40:00,70.3,67.2,29.77,SSE,157,0.0,3.0,90,0.00,,,0.00,WeatherCatV1.10B1784,2013-01-12 09:40:00,
2013-01-12 03:45:00,70.3,67.2,29.77,SSE,152,0.0,10.0,90,0.00,,,0.00,WeatherCatV1.10B1784,2013-01-12 09:45:00,
2013-01-12 03:50:00,70.4,67.3,29.77,SE,144,0.0,4.0,90,0.00,,,0.00,WeatherCatV1.10B1784,2013-01-12 09:50:00,
2013-01-12 03:55:00,70.5,67.4,29.77,SSE,150,2.0,4.0,90,0.00,,,0.00,WeatherCatV1.10B1784,2013-01-12 09:55:00,
2013-01-12 04:00:00,70.5,67.4,29.76,SSE,155,3.0,5.0,90,0.00,,,0.00,WeatherCatV1.10B1784,2013-01-12 10:00:00,
2013-01-12 04:05:00,70.5,67.4,29.75,SE,146,6.0,6.0,90,0.00,,,0.00,WeatherCatV1.10B1784,2013-01-12 10:05:00,
2013-01-12 04:10:00,70.5,67.4,29.76,SE,133,2.0,11.0,90,0.00,,,0.00,WeatherCatV1.10B1784,2013-01-12 10:10:00,
2013-01-12 04:15:00,70.6,67.5,29.75,ESE,114,8.0,13.0,90,0.00,,,0.00,WeatherCatV1.10B1784,2013-01-12 10:15:00,
2013-01-12 04:20:00,70.6,67.5,29.75,ESE,115,0.0,6.0,90,0.00,,,0.00,WeatherCatV1.10B1784,2013-01-12 10:20:00,
2013-01-12 04:25:00,70.6,67.2,29.75,East,96,0.0,3.0,89,0.00,,,0.00,WeatherCatV1.10B1784,2013-01-12 10:25:00,
2013-01-12 04:30:00,70.6,67.2,29.75,SE,126,5.0,5.0,89,0.00,,,0.00,WeatherCatV1.10B1784,2013-01-12 10:30:00,
2013-01-12 04:35:00,70.6,67.2,29.75,SE,128,6.0,9.0,89,0.00,,,0.00,WeatherCatV1.10B1784,2013-01-12 10:35:00,
2013-01-12 04:40:00,70.6,67.2,29.75,SSE,152,5.0,8.0,89,0.00,,,0.00,WeatherCatV1.10B1784,2013-01-12 10:40:00,
2013-01-12 04:45:00,70.7,67.3,29.75,SE,139,0.0,12.0,89,0.00,,,0.00,WeatherCatV1.10B1784,2013-01-12 10:45:00,
2013-01-12 04:50:00,70.7,67.3,29.75,SE,127,0.0,8.0,89,0.00,,,0.00,WeatherCatV1.10B1784,2013-01-12 10:50:00,
2013-01-12 04:55:00,70.7,67.3,29.75,SSE,158,0.0,5.0,89,0.00,,,0.00,WeatherCatV1.10B1784,2013-01-12 10:55:00,
2013-01-12 05:00:00,70.6,67.2,29.75,SE,146,3.0,8.0,89,0.00,,,0.00,WeatherCatV1.10B1784,2013-01-12 11:00:00,
2013-01-12 05:05:00,70.6,67.2,29.75,SE,126,3.0,9.0,89,0.00,,,0.00,WeatherCatV1.10B1784,2013-01-12 11:05:00,
2013-01-12 05:10:00,70.6,67.2,29.74,SSE,157,0.0,7.0,89,0.00,,,0.00,WeatherCatV1.10B1784,2013-01-12 11:10:00,
2013-01-12 05:15:00,70.5,67.1,29.74,SSE,152,4.0,4.0,89,0.00,,,0.00,WeatherCatV1.10B1784,2013-01-12 11:15:00,
2013-01-12 05:20:00,70.6,67.2,29.74,SE,134,4.0,5.0,89,0.00,,,0.00,WeatherCatV1.10B1784,2013-01-12 11:20:00,
2013-01-12 05:25:00,70.6,67.2,29.74,SSE,151,0.0,8.0,89,0.00,,,0.00,WeatherCatV1.10B1784,2013-01-12 11:25:00,
2013-01-12 05:30:00,70.6,67.2,29.75,SSE,161,0.0,5.0,89,0.00,,,0.00,WeatherCatV1.10B1784,2013-01-12 11:30:00,
2013-01-12 05:35:00,70.5,67.1,29.74,ESE,102,5.0,8.0,89,0.00,,,0.00,WeatherCatV1.10B1784,2013-01-12 11:35:00,
2013-01-12 05:40:00,70.6,67.2,29.74,ESE,121,4.0,7.0,89,0.00,,,0.00,WeatherCatV1.10B1784,2013-01-12 11:40:00,
2013-01-12 05:45:00,70.6,67.2,29.74,SE,126,3.0,8.0,89,0.00,,,0.00,WeatherCatV1.10B1784,2013-01-12 11:45:00,
2013-01-12 05:50:00,70.5,67.1,29.73,SE,137,6.0,6.0,89,0.00,,,0.00,WeatherCatV1.10B1784,2013-01-12 11:50:00,
2013-01-12 05:55:00,70.5,67.1,29.73,SE,137,1.0,4.0,89,0.00,,,0.00,WeatherCatV1.10B1784,2013-01-12 11:55:00,
2013-01-12 06:00:00,70.5,67.1,29.73,SSE,161,0.0,9.0,89,0.00,,,0.00,WeatherCatV1.10B1784,2013-01-12 12:00:00,
2013-01-12 06:05:00,70.5,67.1,29.74,SE,142,0.0,4.0,89,0.00,,,0.00,WeatherCatV1.10B1784,2013-01-12 12:05:00,
2013-01-12 06:10:00,70.5,67.4,29.74,ESE,111,3.0,8.0,90,0.00,,,0.00,WeatherCatV1.10B1784,2013-01-12 12:10:00,
2013-01-12 06:15:00,70.6,67.2,29.73,ENE,66,4.0,6.0,89,0.00,,,0.00,WeatherCatV1.10B1784,2013-01-12 12:15:00,
2013-01-12 06:20:00,70.6,67.2,29.74,SE,143,3.0,3.0,89,0.00,,,0.00,WeatherCatV1.10B1784,2013-01-12 12:20:00,
2013-01-12 06:25:00,70.6,67.2,29.75,ESE,117,0.0,5.0,89,0.00,,,0.00,WeatherCatV1.10B1784,2013-01-12 12:25:00,
2013-01-12 06:30:00,70.6,67.2,29.75,ESE,115,3.0,8.0,89,0.00,,,0.00,WeatherCatV1.10B1784,2013-01-12 12:30:00,
2013-01-12 06:35:00,70.6,67.2,29.74,ESE,122,2.0,9.0,89,0.00,,,0.00,WeatherCatV1.10B1784,2013-01-12 12:35:00,
2013-01-12 06:40:00,70.6,67.2,29.74,ESE,108,0.0,7.0,89,0.00,,,0.00,WeatherCatV1.10B1784,2013-01-12 12:40:00,
2013-01-12 06:45:00,70.6,67.2,29.74,East,90,5.0,6.0,89,0.00,,,0.00,WeatherCatV1.10B1784,2013-01-12 12:45:00,
2013-01-12 06:50:00,70.6,67.2,29.73,East,95,11.0,11.0,89,0.00,,,0.00,WeatherCatV1.10B1784,2013-01-12 12:50:00,
2013-01-12 06:55:00,70.6,67.2,29.73,SSE,151,7.0,9.0,89,0.00,,,0.00,WeatherCatV1.10B1784,2013-01-12 12:55:00,
2013-01-12 07:00:00,70.6,67.2,29.73,SSE,147,3.0,8.0,89,0.00,,,0.00,WeatherCatV1.10B1784,2013-01-12 13:00:00,
2013-01-12 07:05:00,70.6,67.2,29.73,SE,135,7.0,8.0,89,0.00,,,0.00,WeatherCatV1.10B1784,2013-01-12 13:05:00,
2013-01-12 07:10:00,70.5,67.1,29.73,East,79,0.0,7.0,89,0.00,,,0.00,WeatherCatV1.10B1784,2013-01-12 13:10:00,
2013-01-12 07:15:00,70.5,67.1,29.73,SE,130,1.0,6.0,89,0.00,,,0.00,WeatherCatV1.10B1784,2013-01-12 13:15:00,
2013-01-12 07:20:00,70.5,67.4,29.73,SE,141,5.0,5.0,90,0.00,,,0.00,WeatherCatV1.10B1784,2013-01-12 13:20:00,
2013-01-12 07:25:00,70.5,67.4,29.72,East,94,1.0,8.0,90,0.00,,,0.00,WeatherCatV1.10B1784,2013-01-12 13:25:00,
2013-01-12 07:30:00,70.4,67.3,29.72,East,91,9.0,9.0,90,0.00,,,0.00,WeatherCatV1.10B1784,2013-01-12 13:30:00,
2013-01-12 07:35:00,70.4,67.3,29.72,ESE,118,4.0,7.0,90,0.00,,,0.00,WeatherCatV1.10B1784,2013-01-12 13:35:00,
2013-01-12 07:40:00,70.4,67.3,29.72,SSE,161,0.0,8.0,90,0.00,,,0.00,WeatherCatV1.10B1784,2013-01-12 13:40:00,
2013-01-12 07:45:00,70.5,67.4,29.73,SE,141,7.0,11.0,90,0.00,,,0.00,WeatherCatV1.10B1784,2013-01-12 13:45:00,
2013-01-12 07:50:00,70.5,67.4,29.73,SE,141,9.0,10.0,90,0.00,,,0.00,WeatherCatV1.10B1784,2013-01-12 13:50:00,
2013-01-12 07:55:00,70.6,67.5,29.74,SE,135,3.0,11.0,90,0.00,,,0.00,WeatherCatV1.10B1784,2013-01-12 13:55:00,
2013-01-12 08:00:00,70.6,67.5,29.74,ESE,110,3.0,5.0,90,0.00,,,0.00,WeatherCatV1.10B1784,2013-01-12 14:00:00,
2013-01-12 08:05:00,70.7,67.6,29.74,SE,128,1.0,9.0,90,0.00,,,0.00,WeatherCatV1.10B1784,2013-01-12 14:05:00,
2013-01-12 08:10:00,70.7,67.3,29.73,East,86,6.0,7.0,89,0.00,,,0.00,WeatherCatV1.10B1784,2013-01-12 14:10:00,
2013-01-12 08:15:00,70.8,67.4,29.73,ESE,108,4.0,5.0,89,0.00,,,0.00,WeatherCatV1.10B1784,2013-01-12 14:15:00,
2013-01-12 08:20:00,70.7,67.3,29.74,SE,127,0.0,7.0,89,0.00,,,0.00,WeatherCatV1.10B1784,2013-01-12 14:20:00,
2013-01-12 08:25:00,70.7,67.3,29.74,ESE,115,0.0,10.0,89,0.00,,,0.00,WeatherCatV1.10B1784,2013-01-12 14:25:00,
2013-01-12 08:30:00,70.8,67.4,29.74,SE,129,3.0,4.0,89,0.00,,,0.00,WeatherCatV1.10B1784,2013-01-12 14:30:00,
2013-01-12 08:35:00,70.7,67.3,29.75,SE,144,0.0,9.0,89,0.00,,,0.00,WeatherCatV1.10B1784,2013-01-12 14:35:00,
2013-01-12 08:40:00,70.8,67.4,29.75,SSE,153,3.0,8.0,89,0.00,,,0.00,WeatherCatV1.10B1784,2013-01-12 14:40:00,
2013-01-12 08:45:00,70.8,67.4,29.75,SE,127,1.0,4.0,89,0.00,,,0.00,WeatherCatV1.10B1784,2013-01-12 14:45:00,
2013-01-12 08:50:00,70.8,67.4,29.75,SE,136,5.0,5.0,89,0.00,,,0.00,WeatherCatV1.10B1784,2013-01-12 14:50:00,
2013-01-12 08:55:00,70.9,67.5,29.76,South,174,1.0,5.0,89,0.00,,,0.00,WeatherCatV1.10B1784,2013-01-12 14:55:00,
2013-01-12 09:00:00,70.9,67.5,29.76,SSE,161,1.0,3.0,89,0.00,,,0.00,WeatherCatV1.10B1784,2013-01-12 15:00:00,
2013-01-12 09:05:00,70.8,67.4,29.76,SSE,158,0.0,5.0,89,0.00,,,0.00,WeatherCatV1.10B1784,2013-01-12 15:05:00,
2013-01-12 09:10:00,70.8,67.4,29.76,SE,146,0.0,6.0,89,0.00,,,0.00,WeatherCatV1.10B1784,2013-01-12 15:10:00,
2013-01-12 09:15:00,70.9,67.5,29.76,SSE,155,5.0,5.0,89,0.00,,,0.00,WeatherCatV1.10B1784,2013-01-12 15:15:00,
2013-01-12 09:20:00,70.9,67.5,29.76,SE,126,0.0,5.0,89,0.00,,,0.00,WeatherCatV1.10B1784,2013-01-12 15:20:00,
2013-01-12 09:25:00,71.0,67.6,29.76,SE,144,0.0,5.0,89,0.00,,,0.00,WeatherCatV1.10B1784,2013-01-12 15:25:00,
2013-01-12 09:30:00,71.0,67.6,29.76,SSE,168,4.0,4.0,89,0.00,,,0.00,WeatherCatV1.10B1784,2013-01-12 15:30:00,
2013-01-12 09:35:00,71.0,67.6,29.76,SE,133,5.0,8.0,89,0.00,,,0.00,WeatherCatV1.10B1784,2013-01-12 15:35:00,
2013-01-12 09:40:00,71.1,67.7,29.76,ESE,122,0.0,5.0,89,0.00,,,0.00,WeatherCatV1.10B1784,2013-01-12 15:40:00,
2013-01-12 09:45:00,71.2,67.8,29.76,SE,126,2.0,4.0,89,0.00,,,0.00,WeatherCatV1.10B1784,2013-01-12 15:45:00,
2013-01-12 09:50:00,71.3,67.9,29.76,SSE,149,5.0,5.0,89,0.00,,,0.00,WeatherCatV1.10B1784,2013-01-12 15:50:00,
2013-01-12 09:55:00,71.3,67.9,29.76,ESE,112,3.0,5.0,89,0.00,,,0.00,WeatherCatV1.10B1784,2013-01-12 15:55:00,
2013-01-12 10:00:00,71.3,67.9,29.75,SE,125,3.0,10.0,89,0.00,,,0.00,WeatherCatV1.10B1784,2013-01-12 16:00:00,
2013-01-12 10:05:00,71.4,68.0,29.76,ESE,104,0.0,0.0,89,0.00,,,0.00,WeatherCatV1.10B1784,2013-01-12 16:05:00,
2013-01-12 10:10:00,71.6,67.8,29.76,SSE,159,0.0,8.0,88,0.00,,,0.00,WeatherCatV1.10B1784,2013-01-12 16:10:00,
2013-01-12 10:15:00,71.7,67.9,29.76,SE,126,0.0,3.0,88,0.00,,,0.00,WeatherCatV1.10B1784,2013-01-12 16:15:00,
2013-01-12 10:20:00,71.7,67.9,29.76,SSE,150,2.0,7.0,88,0.00,,,0.00,WeatherCatV1.10B1784,2013-01-12 16:20:00,
2013-01-12 10:25:00,71.7,67.9,29.76,SE,125,2.0,5.0,88,0.00,,,0.00,WeatherCatV1.10B1784,2013-01-12 16:25:00,
2013-01-12 10:30:00,71.8,68.0,29.75,SE,130,0.0,8.0,88,0.00,,,0.00,WeatherCatV1.10B1784,2013-01-12 16:30:00,
2013-01-12 10:35:00,71.8,68.0,29.75,SSE,158,0.0,6.0,88,0.00,,,0.00,WeatherCatV1.10B1784,2013-01-12 16:35:00,
2013-01-12 10:40:00,71.9,68.1,29.75,SSE,165,6.0,8.0,88,0.00,,,0.00,WeatherCatV1.10B1784,2013-01-12 16:40:00,
2013-01-12 10:45:00,72.0,67.9,29.74,SE,146,0.0,7.0,87,0.00,,,0.00,WeatherCatV1.10B1784,2013-01-12 16:45:00,
2013-01-12 10:50:00,72.1,68.0,29.73,SE,140,10.0,10.0,87,0.00,,,0.00,WeatherCatV1.10B1784,2013-01-12 16:50:00,
2013-01-12 10:55:00,72.1,68.0,29.73,SE,141,6.0,11.0,87,0.00,,,0.00,WeatherCatV1.10B1784,2013-01-12 16:55:00,
2013-01-12 11:00:00,72.2,68.1,29.72,SE,144,3.0,9.0,87,0.00,,,0.00,WeatherCatV1.10B1784,2013-01-12 17:00:00,
2013-01-12 11:05:00,72.3,67.9,29.71,SE,128,9.0,9.0,86,0.00,,,0.00,WeatherCatV1.10B1784,2013-01-12 17:05:00,
2013-01-12 11:10:00,72.4,68.0,29.71,SE,135,6.0,15.0,86,0.00,,,0.00,WeatherCatV1.10B1784,2013-01-12 17:10:00,
2013-01-12 11:15:00,72.4,68.0,29.71,SE,128,2.0,5.0,86,0.00,,,0.00,WeatherCatV1.10B1784,2013-01-12 17:15:00,
2013-01-12 11:20:00,72.4,68.0,29.70,ESE,121,5.0,15.0,86,0.00,,,0.00,WeatherCatV1.10B1784,2013-01-12 17:20:00,
2013-01-12 11:25:00,72.4,68.0,29.71,SE,133,0.0,12.0,86,0.00,,,0.00,WeatherCatV1.10B1784,2013-01-12 17:25:00,
2013-01-12 11:30:00,72.5,68.1,29.70,South,177,3.0,17.0,86,0.00,,,0.00,WeatherCatV1.10B1784,2013-01-12 17:30:00,
2013-01-12 11:35:00,72.5,68.1,29.71,SSE,148,5.0,12.0,86,0.00,,,0.00,WeatherCatV1.10B1784,2013-01-12 17:35:00,
2013-01-12 11:40:00,72.5,67.7,29.71,SE,128,8.0,9.0,85,0.00,,,0.00,WeatherCatV1.10B1784,2013-01-12 17:40:00,
2013-01-12 11:45:00,72.5,67.7,29.71,SE,146,0.0,1.0,85,0.00,,,0.00,WeatherCatV1.10B1784,2013-01-12 17:45:00,
2013-01-12 11:50:00,72.5,67.7,29.72,South,169,0.0,7.0,85,0.00,,,0.00,WeatherCatV1.10B1784,2013-01-12 17:50:00,
2013-01-12 11:55:00,72.6,67.8,29.71,SE,142,4.0,9.0,85,0.00,,,0.00,WeatherCatV1.10B1784,2013-01-12 17:55:00,
2013-01-12 12:00:00,72.6,67.8,29.72,SSE,159,3.0,12.0,85,0.00,,,0.00,WeatherCatV1.10B1784,2013-01-12 18:00:00,
2013-01-12 12:05:00,72.6,67.8,29.71,SSE,165,4.0,8.0,85,0.00,,,0.00,WeatherCatV1.10B1784,2013-01-12 18:05:00,
2013-01-12 12:10:00,72.5,67.7,29.70,SSE,163,7.0,7.0,85,0.00,,,0.00,WeatherCatV1.10B1784,2013-01-12 18:10:00,
2013-01-12 12:15:00,72.5,67.7,29.69,SSE,164,5.0,9.0,85,0.00,,,0.00,WeatherCatV1.10B1784,2013-01-12 18:15:00,
2013-01-12 12:20:00,72.7,67.9,29.68,SE,134,0.0,7.0,85,0.00,,,0.00,WeatherCatV1.10B1784,2013-01-12 18:20:00,
2013-01-12 12:25:00,72.7,67.9,29.68,SE,127,6.0,10.0,85,0.00,,,0.00,WeatherCatV1.10B1784,2013-01-12 18:25:00,
2013-01-12 12:30:00,72.7,67.6,29.67,SSE,154,3.0,10.0,84,0.00,,,0.00,WeatherCatV1.10B1784,2013-01-12 18:30:00,
2013-01-12 12:35:00,72.6,67.5,29.68,SSE,157,0.0,9.0,84,0.00,,,0.00,WeatherCatV1.10B1784,2013-01-12 18:35:00,
2013-01-12 12:40:00,72.7,67.6,29.68,SSE,150,0.0,4.0,84,0.00,,,0.00,WeatherCatV1.10B1784,2013-01-12 18:40:00,
2013-01-12 12:45:00,72.6,67.5,29.68,SSE,159,0.0,4.0,84,0.00,,,0.00,WeatherCatV1.10B1784,2013-01-12 18:45:00,
2013-01-12 12:50:00,72.7,67.6,29.66,SE,129,0.0,13.0,84,0.00,,,0.00,WeatherCatV1.10B1784,2013-01-12 18:50:00,
2013-01-12 12:55:00,72.7,67.6,29.67,South,173,0.0,8.0,84,0.00,,,0.00,WeatherCatV1.10B1784,2013-01-12 18:55:00,
2013-01-12 13:00:00,72.8,67.7,29.65,SE,128,3.0,9.0,84,0.00,,,0.00,WeatherCatV1.10B1784,2013-01-12 19:00:00,
2013-01-12 13:05:00,72.8,67.7,29.65,SE,126,8.0,8.0,84,0.00,,,0.00,WeatherCatV1.10B1784,2013-01-12 19:05:00,
2013-01-12 13:10:00,72.8,67.7,29.66,SE,145,4.0,9.0,84,0.00,,,0.00,WeatherCatV1.10B1784,2013-01-12 19:10:00,
2013-01-12 13:15:00,72.8,67.7,29.67,South,191,0.0,8.0,84,0.00,,,0.00,WeatherCatV1.10B1784,2013-01-12 19:15:00,
2013-01-12 13:20:00,72.8,67.7,29.68,East,94,1.0,10.0,84,0.00,,,0.00,WeatherCatV1.10B1784,2013-01-12 19:20:00,
2013-01-12 13:25:00,72.7,67.6,29.68,SSW,196,3.0,7.0,84,0.00,,,0.00,WeatherCatV1.10B1784,2013-01-12 19:25:00,
2013-01-12 13:30:00,72.7,67.6,29.67,South,184,0.0,5.0,84,0.00,,,0.00,WeatherCatV1.10B1784,2013-01-12 19:30:00,
2013-01-12 13:35:00,72.6,67.5,29.67,South,180,5.0,7.0,84,0.00,,,0.00,WeatherCatV1.10B1784,2013-01-12 19:35:00,
2013-01-12 13:40:00,72.6,67.8,29.66,South,187,0.0,0.0,85,0.00,,,0.00,WeatherCatV1.10B1784,2013-01-12 19:40:00,
2013-01-12 13:45:00,72.6,67.8,29.67,South,188,1.0,3.0,85,0.00,,,0.00,WeatherCatV1.10B1784,2013-01-12 19:45:00,
2013-01-12 13:50:00,72.6,67.8,29.66,South,187,1.0,3.0,85,0.00,,,0.00,WeatherCatV1.10B1784,2013-01-12 19:50:00,
2013-01-12 13:55:00,72.7,67.9,29.66,South,182,0.0,5.0,85,0.00,,,0.00,WeatherCatV1.10B1784,2013-01-12 19:55:00,
2013-01-12 14:00:00,72.8,67.7,29.66,South,183,0.0,3.0,84,0.00,,,0.00,WeatherCatV1.10B1784,2013-01-12 20:00:00,
2013-01-12 14:05:00,73.0,67.9,29.66,South,183,0.0,3.0,84,0.00,,,0.00,WeatherCatV1.10B1784,2013-01-12 20:05:00,
2013-01-12 14:10:00,73.2,68.1,29.66,South,178,0.0,1.0,84,0.00,,,0.00,WeatherCatV1.10B1784,2013-01-12 20:10:00,
2013-01-12 14:15:00,73.4,68.3,29.65,SSE,148,0.0,7.0,84,0.00,,,0.00,WeatherCatV1.10B1784,2013-01-12 20:15:00,
2013-01-12 14:20:00,73.6,68.5,29.65,ESE,104,0.0,8.0,84,0.00,,,0.00,WeatherCatV1.10B1784,2013-01-12 20:20:00,
2013-01-12 14:25:00,73.8,68.3,29.64,ESE,107,0.0,3.0,83,0.00,,,0.00,WeatherCatV1.10B1784,2013-01-12 20:25:00,
2013-01-12 14:30:00,74.0,68.5,29.64,SE,136,0.0,1.0,83,0.00,,,0.00,WeatherCatV1.10B1784,2013-01-12 20:30:00,
2013-01-12 14:35:00,74.2,68.3,29.65,ESE,113,0.0,4.0,82,0.00,,,0.00,WeatherCatV1.10B1784,2013-01-12 20:35:00,
2013-01-12 14:40:00,74.4,68.5,29.64,South,171,0.0,1.0,82,0.00,,,0.00,WeatherCatV1.10B1784,2013-01-12 20:40:00,
2013-01-12 14:45:00,74.4,68.5,29.64,SSE,167,0.0,0.0,82,0.00,,,0.00,WeatherCatV1.10B1784,2013-01-12 20:45:00,
2013-01-12 14:50:00,74.6,68.4,29.64,SE,128,0.0,6.0,81,0.00,,,0.00,WeatherCatV1.10B1784,2013-01-12 20:50:00,
2013-01-12 14:55:00,74.6,68.4,29.64,SSE,156,0.0,6.0,81,0.00,,,0.00,WeatherCatV1.10B1784,2013-01-12 20:55:00,
2013-01-12 15:00:00,74.7,68.5,29.64,SE,130,0.0,0.0,81,0.00,,,0.00,WeatherCatV1.10B1784,2013-01-12 21:00:00,
2013-01-12 15:05:00,74.8,68.6,29.64,SE,136,3.0,3.0,81,0.00,,,0.00,WeatherCatV1.10B1784,2013-01-12 21:05:00,
2013-01-12 15:10:00,74.9,68.3,29.64,SSE,155,0.0,6.0,80,0.00,,,0.00,WeatherCatV1.10B1784,2013-01-12 21:10:00,
2013-01-12 15:15:00,75.0,68.4,29.64,SSE,150,0.0,1.0,80,0.00,,,0.00,WeatherCatV1.10B1784,2013-01-12 21:15:00,
2013-01-12 15:20:00,75.0,68.4,29.64,SSE,155,1.0,3.0,80,0.00,,,0.00,WeatherCatV1.10B1784,2013-01-12 21:20:00,
2013-01-12 15:25:00,75.0,68.4,29.64,SSE,160,0.0,1.0,80,0.00,,,0.00,WeatherCatV1.10B1784,2013-01-12 21:25:00,
2013-01-12 15:30:00,75.0,68.4,29.63,SE,138,0.0,2.0,80,0.00,,,0.00,WeatherCatV1.10B1784,2013-01-12 21:30:00,
2013-01-12 15:35:00,75.0,68.4,29.63,SE,142,0.0,5.0,80,0.00,,,0.00,WeatherCatV1.10B1784,2013-01-12 21:35:00,
2013-01-12 15:40:00,75.0,68.4,29.63,SE,138,3.0,3.0,80,0.00,,,0.00,WeatherCatV1.10B1784,2013-01-12 21:40:00,
2013-01-12 15:45:00,75.0,68.4,29.63,SE,136,0.0,1.0,80,0.00,,,0.00,WeatherCatV1.10B1784,2013-01-12 21:45:00,
2013-01-12 15:50:00,74.9,68.3,29.62,SE,144,4.0,7.0,80,0.00,,,0.00,WeatherCatV1.10B1784,2013-01-12 21:50:00,
2013-01-12 15:55:00,74.8,68.2,29.62,ESE,111,0.0,8.0,80,0.00,,,0.00,WeatherCatV1.10B1784,2013-01-12 21:55:00,
2013-01-12 16:00:00,74.8,68.6,29.62,SE,134,0.0,4.0,81,0.00,,,0.00,WeatherCatV1.10B1784,2013-01-12 22:00:00,
2013-01-12 16:05:00,74.8,68.6,29.62,SE,133,0.0,3.0,81,0.00,,,0.00,WeatherCatV1.10B1784,2013-01-12 22:05:00,
2013-01-12 16:10:00,74.7,68.5,29.62,ESE,118,1.0,3.0,81,0.00,,,0.00,WeatherCatV1.10B1784,2013-01-12 22:10:00,
2013-01-12 16:15:00,74.6,68.7,29.62,ESE,114,0.0,4.0,82,0.00,,,0.00,WeatherCatV1.10B1784,2013-01-12 22:15:00,
2013-01-12 16:20:00,74.5,68.6,29.62,ESE,114,1.0,1.0,82,0.00,,,0.00,WeatherCatV1.10B1784,2013-01-12 22:20:00,
2013-01-12 16:25:00,74.4,68.5,29.62,ESE,115,0.0,0.0,82,0.00,,,0.00,WeatherCatV1.10B1784,2013-01-12 22:25:00,
2013-01-12 16:30:00,74.4,68.5,29.63,ESE,115,0.0,0.0,82,0.00,,,0.00,WeatherCatV1.10B1784,2013-01-12 22:30:00,
2013-01-12 16:35:00,74.3,68.4,29.63,ESE,115,0.0,0.0,82,0.00,,,0.00,WeatherCatV1.10B1784,2013-01-12 22:35:00,
2013-01-12 16:40:00,74.3,68.4,29.64,ESE,114,0.0,0.0,82,0.00,,,0.00,WeatherCatV1.10B1784,2013-01-12 22:40:00,
2013-01-12 16:45:00,74.2,68.7,29.63,ESE,114,0.0,1.0,83,0.00,,,0.00,WeatherCatV1.10B1784,2013-01-12 22:45:00,
2013-01-12 16:50:00,74.2,68.7,29.63,ESE,115,0.0,0.0,83,0.00,,,0.00,WeatherCatV1.10B1784,2013-01-12 22:50:00,
2013-01-12 16:55:00,74.1,68.6,29.63,ESE,115,0.0,0.0,83,0.00,,,0.00,WeatherCatV1.10B1784,2013-01-12 22:55:00,
2013-01-12 17:00:00,74.0,68.5,29.63,ESE,115,0.0,0.0,83,0.00,,,0.00,WeatherCatV1.10B1784,2013-01-12 23:00:00,
2013-01-12 17:05:00,73.9,68.7,29.63,ESE,115,0.0,0.0,84,0.00,,,0.00,WeatherCatV1.10B1784,2013-01-12 23:05:00,
2013-01-12 17:10:00,73.8,68.3,29.63,ESE,115,0.0,0.0,83,0.00,,,0.00,WeatherCatV1.10B1784,2013-01-12 23:10:00,
2013-01-12 17:15:00,73.7,68.6,29.64,ESE,114,0.0,0.0,84,0.00,,,0.00,WeatherCatV1.10B1784,2013-01-12 23:15:00,
2013-01-12 17:20:00,73.6,68.5,29.64,ESE,114,0.0,0.0,84,0.00,,,0.00,WeatherCatV1.10B1784,2013-01-12 23:20:00,
2013-01-12 17:25:00,73.5,68.4,29.64,ESE,115,0.0,0.0,84,0.00,,,0.00,WeatherCatV1.10B1784,2013-01-12 23:25:00,
2013-01-12 17:30:00,73.5,68.7,29.64,ESE,113,0.0,0.0,85,0.00,,,0.00,WeatherCatV1.10B1784,2013-01-12 23:30:00,
2013-01-12 17:35:00,73.3,68.8,29.64,ESE,113,0.0,2.0,86,0.00,,,0.00,WeatherCatV1.10B1784,2013-01-12 23:35:00,
2013-01-12 17:40:00,73.2,68.8,29.65,ESE,113,0.0,0.0,86,0.00,,,0.00,WeatherCatV1.10B1784,2013-01-12 23:40:00,
2013-01-12 17:45:00,73.1,68.7,29.64,ESE,112,0.0,1.0,86,0.00,,,0.00,WeatherCatV1.10B1784,2013-01-12 23:45:00,
2013-01-12 17:50:00,72.9,68.8,29.65,SE,126,0.0,4.0,87,0.00,,,0.00,WeatherCatV1.10B1784,2013-01-12 23:50:00,
2013-01-12 17:55:00,72.8,68.7,29.65,SE,126,0.0,0.0,87,0.00,,,0.00,WeatherCatV1.10B1784,2013-01-12 23:55:00,
2013-01-12 18:00:00,72.6,68.5,29.65,SE,125,0.0,1.0,87,0.00,,,0.00,WeatherCatV1.10B1784,2013-01-13 00:00:00,
2013-01-12 18:05:00,72.5,68.7,29.65,SE,125,0.0,0.0,88,0.00,,,0.00,WeatherCatV1.10B1784,2013-01-13 00:05:00,
2013-01-12 18:10:00,72.4,68.6,29.65,SE,125,0.0,1.0,88,0.00,,,0.00,WeatherCatV1.10B1784,2013-01-13 00:10:00,
2013-01-12 18:15:00,72.2,68.4,29.66,SE,125,0.0,1.0,88,0.00,,,0.00,WeatherCatV1.10B1784,2013-01-13 00:15:00,
2013-01-12 18:20:00,72.1,68.3,29.65,SE,124,0.0,1.0,88,0.00,,,0.00,WeatherCatV1.10B1784,2013-01-13 00:20:00,
2013-01-12 18:25:00,72.0,68.2,29.66,ESE,123,0.0,1.0,88,0.00,,,0.00,WeatherCatV1.10B1784,2013-01-13 00:25:00,
2013-01-12 18:30:00,72.0,68.6,29.66,ESE,123,0.0,0.0,89,0.00,,,0.00,WeatherCatV1.10B1784,2013-01-13 00:30:00,
2013-01-12 18:35:00,71.9,68.5,29.66,ESE,122,0.0,0.0,89,0.00,,,0.00,WeatherCatV1.10B1784,2013-01-13 00:35:00,
2013-01-12 18:40:00,71.8,68.4,29.66,ESE,122,0.0,0.0,89,0.00,,,0.00,WeatherCatV1.10B1784,2013-01-13 00:40:00,
2013-01-12 18:45:00,71.7,68.3,29.66,ESE,123,0.0,0.0,89,0.00,,,0.00,WeatherCatV1.10B1784,2013-01-13 00:45:00,
2013-01-12 18:50:00,71.7,68.3,29.67,ESE,123,0.0,0.0,89,0.00,,,0.00,WeatherCatV1.10B1784,2013-01-13 00:50:00,
2013-01-12 18:55:00,71.7,68.3,29.67,ESE,122,0.0,0.0,89,0.00,,,0.00,WeatherCatV1.10B1784,2013-01-13 00:55:00,
2013-01-12 19:00:00,71.7,68.3,29.67,ESE,122,0.0,0.0,89,0.00,,,0.00,WeatherCatV1.10B1784,2013-01-13 01:00:00,
2013-01-12 19:05:00,71.6,68.2,29.67,ESE,122,0.0,0.0,89,0.00,,,0.00,WeatherCatV1.10B1784,2013-01-13 01:05:00,
2013-01-12 19:10:00,71.6,68.2,29.67,ESE,122,0.0,0.0,89,0.00,,,0.00,WeatherCatV1.10B1784,2013-01-13 01:10:00,
2013-01-12 19:15:00,71.6,68.2,29.67,ESE,122,0.0,1.0,89,0.00,,,0.00,WeatherCatV1.10B1784,2013-01-13 01:15:00,
2013-01-12 19:20:00,71.5,68.1,29.67,ESE,122,0.0,0.0,89,0.00,,,0.00,WeatherCatV1.10B1784,2013-01-13 01:20:00,
2013-01-12 19:25:00,71.4,68.0,29.67,ESE,122,0.0,0.0,89,0.00,,,0.00,WeatherCatV1.10B1784,2013-01-13 01:25:00,
2013-01-12 19:30:00,71.3,68.2,29.67,ESE,122,0.0,0.0,90,0.00,,,0.00,WeatherCatV1.10B1784,2013-01-13 01:30:00,
2013-01-12 19:35:00,71.3,68.2,29.67,ESE,122,0.0,0.0,90,0.00,,,0.00,WeatherCatV1.10B1784,2013-01-13 01:35:00,
2013-01-12 19:40:00,71.3,68.2,29.67,ESE,122,0.0,0.0,90,0.00,,,0.00,WeatherCatV1.10B1784,2013-01-13 01:40:00,
2013-01-12 19:45:00,71.2,68.1,29.67,ESE,122,0.0,0.0,90,0.00,,,0.00,WeatherCatV1.10B1784,2013-01-13 01:45:00,
2013-01-12 19:50:00,71.1,68.0,29.67,ESE,122,0.0,0.0,90,0.00,,,0.00,WeatherCatV1.10B1784,2013-01-13 01:50:00,
2013-01-12 19:55:00,71.0,67.9,29.67,ESE,122,0.0,0.0,90,0.00,,,0.00,WeatherCatV1.10B1784,2013-01-13 01:55:00,
2013-01-12 20:00:00,70.9,67.8,29.68,ESE,122,0.0,0.0,90,0.00,,,0.00,WeatherCatV1.10B1784,2013-01-13 02:00:00,
2013-01-12 20:05:00,70.8,67.7,29.68,ESE,122,0.0,1.0,90,0.00,,,0.00,WeatherCatV1.10B1784,2013-01-13 02:05:00,
2013-01-12 20:10:00,70.8,67.7,29.68,ESE,122,0.0,0.0,90,0.00,,,0.00,WeatherCatV1.10B1784,2013-01-13 02:10:00,
2013-01-12 20:15:00,70.7,67.6,29.68,ESE,122,0.0,0.0,90,0.00,,,0.00,WeatherCatV1.10B1784,2013-01-13 02:15:00,
2013-01-12 20:20:00,70.6,67.5,29.68,ESE,122,0.0,0.0,90,0.00,,,0.00,WeatherCatV1.10B1784,2013-01-13 02:20:00,
2013-01-12 20:25:00,70.6,67.5,29.68,ESE,115,0.0,0.0,90,0.00,,,0.00,WeatherCatV1.10B1784,2013-01-13 02:25:00,
2013-01-12 20:30:00,70.5,67.7,29.69,ESE,116,0.0,2.0,91,0.00,,,0.00,WeatherCatV1.10B1784,2013-01-13 02:30:00,
2013-01-12 20:35:00,70.6,67.8,29.69,NNE,19,0.0,1.0,91,0.00,,,0.00,WeatherCatV1.10B1784,2013-01-13 02:35:00,
2013-01-12 20:40:00,70.7,67.6,29.69,North,351,8.0,11.0,90,0.00,,,0.00,WeatherCatV1.10B1784,2013-01-13 02:40:00,
2013-01-12 20:45:00,71.1,67.7,29.69,NNW,331,0.0,7.0,89,0.00,,,0.00,WeatherCatV1.10B1784,2013-01-13 02:45:00,
2013-01-12 20:50:00,71.3,67.6,29.69,NNW,343,0.0,8.0,88,0.00,,,0.00,WeatherCatV1.10B1784,2013-01-13 02:50:00,
2013-01-12 20:55:00,71.4,67.3,29.70,North,355,3.0,10.0,87,0.00,,,0.00,WeatherCatV1.10B1784,2013-01-13 02:55:00,
2013-01-12 21:00:00,69.5,60.8,29.71,NNW,348,10.0,20.0,74,0.00,,,0.00,WeatherCatV1.10B1784,2013-01-13 03:00:00,
2013-01-12 21:05:00,66.1,54.8,29.71,NW,322,13.0,15.0,67,0.00,,,0.00,WeatherCatV1.10B1784,2013-01-13 03:05:00,
2013-01-12 21:10:00,64.3,52.7,29.71,NNW,344,8.0,13.0,66,0.00,,,0.00,WeatherCatV1.10B1784,2013-01-13 03:10:00,
2013-01-12 21:15:00,63.5,51.9,29.72,North,0,7.0,9.0,66,0.00,,,0.00,WeatherCatV1.10B1784,2013-01-13 03:15:00,
2013-01-12 21:20:00,62.8,50.9,29.72,NNW,333,5.0,10.0,65,0.00,,,0.00,WeatherCatV1.10B1784,2013-01-13 03:20:00,
2013-01-12 21:25:00,62.3,50.4,29.73,North,355,6.0,14.0,65,0.00,,,0.00,WeatherCatV1.10B1784,2013-01-13 03:25:00,
2013-01-12 21:30:00,61.9,50.0,29.73,North,9,9.0,13.0,65,0.00,,,0.00,WeatherCatV1.10B1784,2013-01-13 03:30:00,
2013-01-12 21:35:00,61.4,48.7,29.73,NNW,342,2.0,14.0,63,0.00,,,0.00,WeatherCatV1.10B1784,2013-01-13 03:35:00,
2013-01-12 21:40:00,61.0,48.3,29.73,North,0,6.0,13.0,63,0.00,,,0.00,WeatherCatV1.10B1784,2013-01-13 03:40:00,
2013-01-12 21:45:00,60.6,47.9,29.72,NW,307,11.0,18.0,63,0.00,,,0.00,WeatherCatV1.10B1784,2013-01-13 03:45:00,
2013-01-12 21:50:00,60.4,47.7,29.72,NNW,332,6.0,8.0,63,0.00,,,0.00,WeatherCatV1.10B1784,2013-01-13 03:50:00,
2013-01-12 21:55:00,59.9,46.8,29.73,NNW,335,5.0,12.0,62,0.00,,,0.00,WeatherCatV1.10B1784,2013-01-13 03:55:00,
2013-01-12 22:00:00,59.5,46.5,29.73,North,9,5.0,13.0,62,0.00,,,0.00,WeatherCatV1.10B1784,2013-01-13 04:00:00,
2013-01-12 22:05:00,59.1,46.5,29.74,North,0,9.0,17.0,63,0.00,,,0.00,WeatherCatV1.10B1784,2013-01-13 04:05:00,
2013-01-12 22:10:00,59.0,45.6,29.75,ENE,59,3.0,10.0,61,0.00,,,0.00,WeatherCatV1.10B1784,2013-01-13 04:10:00,
2013-01-12 22:15:00,59.0,46.0,29.75,NNW,331,4.0,14.0,62,0.00,,,0.00,WeatherCatV1.10B1784,2013-01-13 04:15:00,
2013-01-12 22:20:00,58.6,45.6,29.75,NNW,341,9.0,9.0,62,0.00,,,0.00,WeatherCatV1.10B1784,2013-01-13 04:20:00,
2013-01-12 22:25:00,58.4,45.4,29.75,North,350,7.0,11.0,62,0.00,,,0.00,WeatherCatV1.10B1784,2013-01-13 04:25:00,
2013-01-12 22:30:00,58.2,45.7,29.75,North,9,0.0,7.0,63,0.00,,,0.00,WeatherCatV1.10B1784,2013-01-13 04:30:00,
2013-01-12 22:35:00,58.0,45.9,29.75,NNW,341,9.0,11.0,64,0.00,,,0.00,WeatherCatV1.10B1784,2013-01-13 04:35:00,
2013-01-12 22:40:00,57.8,45.7,29.75,NNW,343,5.0,12.0,64,0.00,,,0.00,WeatherCatV1.10B1784,2013-01-13 04:40:00,
2013-01-12 22:45:00,57.3,45.2,29.75,North,5,4.0,13.0,64,0.00,,,0.00,WeatherCatV1.10B1784,2013-01-13 04:45:00,
2013-01-12 22:50:00,56.8,45.2,29.75,NW,319,10.0,10.0,65,0.00,,,0.00,WeatherCatV1.10B1784,2013-01-13 04:50:00,
2013-01-12 22:55:00,56.4,44.8,29.75,North,355,10.0,10.0,65,0.00,,,0.00,WeatherCatV1.10B1784,2013-01-13 04:55:00,
2013-01-12 23:00:00,56.1,44.5,29.75,North,0,5.0,14.0,65,0.00,,,0.00,WeatherCatV1.10B1784,2013-01-13 05:00:00,
2013-01-12 23:01:00,56.0,44.4,29.75,NNW,348,1.0,10.0,65,0.00,,,0.00,WeatherCatV1.10B1784,2013-01-13 05:01:00,
2013-01-12 23:05:00,52.5,42.2,29.82,NNW,346,8.0,13.0,68,0.00,,,0.00,WeatherCatV1.24B11,2013-01-13 05:05:00,
2013-01-12 23:06:00,55.8,44.6,29.75,NNW,348,7.0,15.0,66,0.00,,,0.00,WeatherCatV1.10B1784,2013-01-13 05:06:00,
2013-01-12 23:10:00,52.3,42.1,29.83,NNW,343,8.0,22.0,68,0.00,,,0.00,WeatherCatV1.24B11,2013-01-13 05:10:00,
2013-01-12 23:11:00,55.6,44.4,29.75,North,355,4.0,13.0,66,0.00,,,0.00,WeatherCatV1.10B1784,2013-01-13 05:11:00,
2013-01-12 23:15:00,52.1,41.9,29.82,NNW,340,8.0,13.0,68,0.00,,,0.00,WeatherCatV1.24B11,2013-01-13 05:15:00,
2013-01-12 23:16:00,55.4,44.6,29.76,NNW,342,4.0,8.0,67,0.00,,,0.00,WeatherCatV1.10B1784,2013-01-13 05:16:00,
2013-01-12 23:20:00,52.0,41.8,29.83,North,357,8.0,8.0,68,0.00,,,0.00,WeatherCatV1.24B11,2013-01-13 05:20:00,
2013-01-12 23:21:00,55.0,43.9,29.77,NNW,337,4.0,22.0,66,0.00,,,0.00,WeatherCatV1.10B1784,2013-01-13 05:21:00,
2013-01-12 23:25:00,51.6,41.4,29.82,North,349,7.0,14.0,68,0.00,,,0.00,WeatherCatV1.24B11,2013-01-13 05:25:00,
2013-01-12 23:26:00,54.7,43.6,29.78,NW,322,7.0,9.0,66,0.00,,,0.00,WeatherCatV1.10B1784,2013-01-13 05:26:00,
2013-01-12 23:30:00,51.3,41.1,29.83,NNW,347,7.0,13.0,68,0.00,,,0.00,WeatherCatV1.24B11,2013-01-13 05:30:00,
2013-01-12 23:31:00,54.5,43.8,29.78,NNE,24,6.0,15.0,67,0.00,,,0.00,WeatherCatV1.10B1784,2013-01-13 05:31:00,
2013-01-12 23:35:00,51.1,40.9,29.84,NNW,347,7.0,14.0,68,0.00,,,0.00,WeatherCatV1.24B11,2013-01-13 05:35:00,
2013-01-12 23:36:00,54.3,43.6,29.78,NNE,16,7.0,14.0,67,0.00,,,0.00,WeatherCatV1.10B1784,2013-01-13 05:36:00,
2013-01-12 23:40:00,51.0,41.2,29.83,North,352,7.0,11.0,69,0.00,,,0.00,WeatherCatV1.24B11,2013-01-13 05:40:00,
2013-01-12 23:41:00,54.2,43.9,29.78,North,351,13.0,13.0,68,0.00,,,0.00,WeatherCatV1.10B1784,2013-01-13 05:41:00,
2013-01-12 23:45:00,50.9,40.7,29.83,North,352,6.0,10.0,68,0.00,,,0.00,WeatherCatV1.24B11,2013-01-13 05:45:00,
2013-01-12 23:46:00,54.0,43.7,29.79,North,355,9.0,9.0,68,0.00,,,0.00,WeatherCatV1.10B1784,2013-01-13 05:46:00,
2013-01-12 23:50:00,50.8,40.6,29.83,NNW,341,6.0,10.0,68,0.00,,,0.00,WeatherCatV1.24B11,2013-01-13 05:50:00,
2013-01-12 23:51:00,54.0,44.1,29.79,North,0,2.0,13.0,69,0.00,,,0.00,WeatherCatV1.10B1784,2013-01-13 05:51:00,
2013-01-12 23:55:00,50.5,40.3,29.84,NNW,342,6.0,14.0,68,0.00,,,0.00,WeatherCatV1.24B11,2013-01-13 05:55:00,
2013-01-12 23:56:00,53.6,43.3,29.79,NW,310,16.0,16.0,68,0.00,,,0.00,WeatherCatV1.10B1784,2013-01-13 05:56:00,